Weather History for Boscobel, WI

Change the Weather History Date:

Tuesday, July 9, 2013

  Actual Average (KPDC) Record (KPDC)
Temperature  
Mean Temperature 80 °F -  
Max Temperature 88 °F 86 °F 99 °F (1989)
Min Temperature 73 °F 64 °F 51 °F (1961)
Cooling Degree Days 16    
Growing Degree Days 30 (Base 50)    
Moisture  
Dew Point 72 °F    
Average Humidity 87    
Maximum Humidity 97    
Minimum Humidity 61    
Precipitation  
Precipitation 0.47 in - - ()
Sea Level Pressure  
Sea Level Pressure 29.93 in    
Wind  
Wind Speed 2 mph (SW)    
Max Wind Speed 15 mph    
Max Gust Speed 23 mph    
Visibility 4 miles    
Events Fog , Rain , Thunderstorm    
Averages and records for this station are not official NWS values.
T = Trace of Precipitation, MM = Missing Value Source: NWS Daily Summary

Daily Weather History Graph

Daily Weather History Graph

Search for Another Location

Airport:

Trip Planner

Search our weather history database for the weather conditions in past years. The results will help you decide how hot, cold, wet, or windy it might be!

Date:

Astronomy

Jul. 09, 2013 Rise Set
Actual Time 5:32 AM CDT 8:43 PM CDT
Civil Twilight 4:57 AM CDT 9:18 PM CDT
Nautical Twilight 4:12 AM CDT 10:02 PM CDT
Astronomical Twilight 3:18 AM CDT 10:56 PM CDT
Moon 7:00 AM CDT (7/9) 9:16 PM CDT (7/9)
Length of Visible Light 16h 20m
Length of Day
15h 11m
New Moon, 2% of the Moon is Illuminated
Jul 9
New Moon
Jul 15
First Quarter
Jul 22
Full
Jul 29
Last Quarter
Aug 6
New

Hourly Weather History & Observations

Time (CDT) Temp. Heat Index Dew Point Humidity Pressure Visibility Wind Dir Wind Speed Gust Speed Precip Events Conditions
12:05 AM 73.9 °F - 72.0 °F 93% 29.98 in 2.5 mi Calm Calm - N/A   Clear
12:24 AM 73.9 °F - 72.0 °F 93% 29.98 in 1.5 mi Calm Calm - N/A   Clear
12:31 AM 73.9 °F - 72.0 °F 93% 29.98 in 0.8 mi Calm Calm - N/A   Mist
12:40 AM 73.9 °F - 72.0 °F 93% 29.98 in 1.2 mi Calm Calm - N/A   Mostly Cloudy
12:50 AM 73.4 °F - 71.6 °F 94% 29.97 in 0.8 mi Calm Calm - N/A   Mostly Cloudy
12:53 AM 73.0 °F - 71.1 °F 93% 29.96 in 0.5 mi Calm Calm - N/A Fog Fog
1:07 AM 73.9 °F - 72.0 °F 93% 29.97 in 1.2 mi ENE 3.5 mph - N/A   Overcast
1:16 AM 73.9 °F - 72.0 °F 93% 29.97 in 2.0 mi Calm Calm - N/A   Mostly Cloudy
1:31 AM 73.0 °F - 72.0 °F 96% 29.97 in 1.5 mi Calm Calm - N/A   Scattered Clouds
1:41 AM 73.0 °F - 72.0 °F 96% 29.97 in 1.2 mi Calm Calm - N/A   Mostly Cloudy
1:50 AM 73.4 °F - 71.6 °F 94% 29.97 in 0.8 mi Calm Calm - N/A   Mostly Cloudy
1:53 AM 73.0 °F - 72.0 °F 96% 29.96 in 0.8 mi Calm Calm - N/A   Mostly Cloudy
2:53 AM 73.9 °F - 73.0 °F 97% 29.97 in 0.2 mi Calm Calm - N/A Fog Fog
3:53 AM 73.9 °F - 73.0 °F 97% 29.94 in 0.2 mi Calm Calm - N/A Fog Fog
4:53 AM 73.0 °F - 72.0 °F 96% 29.94 in 0.2 mi Calm Calm - N/A Fog Fog
5:53 AM 73.0 °F - 71.1 °F 93% 29.94 in 0.2 mi Calm Calm - N/A Fog Fog
6:18 AM 73.0 °F - 72.0 °F 96% 29.94 in 1.0 mi Calm Calm - N/A   Mostly Cloudy
6:28 AM 73.0 °F - 71.1 °F 93% 29.94 in 1.2 mi Calm Calm - N/A   Mostly Cloudy
6:32 AM 73.0 °F - 71.1 °F 93% 29.94 in 2.0 mi Calm Calm - N/A   Scattered Clouds
6:53 AM 73.0 °F - 72.0 °F 96% 29.93 in 2.5 mi Calm Calm - N/A   Clear
7:00 AM 73.9 °F - 72.0 °F 93% 29.94 in 2.0 mi Calm Calm - N/A   Scattered Clouds
7:10 AM 73.9 °F - 72.0 °F 93% 29.93 in 2.0 mi Calm Calm - N/A   Mostly Cloudy
7:37 AM 77.0 °F - 73.9 °F 90% 29.93 in 4.0 mi Calm Calm - N/A   Mostly Cloudy
7:46 AM 77.0 °F - 73.0 °F 88% 29.93 in 5.0 mi Calm Calm - N/A   Scattered Clouds
7:53 AM 77.0 °F - 73.0 °F 88% 29.91 in 6.0 mi Calm Calm - N/A   Partly Cloudy
8:38 AM 75.9 °F - 73.0 °F 91% 29.95 in 4.0 mi WSW 5.8 mph - N/A Thunderstorm Mostly Cloudy
8:53 AM 77.0 °F - 73.0 °F 88% 29.96 in 4.0 mi WSW 8.1 mph - 0.02 in Rain , Thunderstorm Light Thunderstorms and Rain
9:01 AM 77.0 °F - 73.0 °F 88% 29.98 in 1.8 mi WSW 11.5 mph 18.4 mph 0.15 in Rain , Thunderstorm Heavy Thunderstorms and Rain
9:23 AM 73.9 °F - 71.1 °F 91% 29.96 in 2.0 mi South 3.5 mph - 0.35 in Rain , Thunderstorm Thunderstorms and Rain
9:32 AM 73.9 °F - 71.1 °F 91% 29.96 in 3.0 mi Variable 3.5 mph - 0.37 in Rain , Thunderstorm Thunderstorms and Rain
9:51 AM 73.4 °F - 71.6 °F 94% 29.96 in 5.0 mi Calm Calm - 0.39 in Rain , Thunderstorm Light Rain
9:53 AM 73.9 °F - 72.0 °F 93% 29.95 in 5.0 mi Calm Calm - 0.39 in Rain , Thunderstorm Light Rain
10:04 AM 75.0 °F - 72.0 °F 90% 29.97 in 8.0 mi WSW 4.6 mph - 0.00 in Rain Light Rain
10:53 AM 75.0 °F - 72.0 °F 90% 29.96 in 4.0 mi South 6.9 mph - 0.05 in Rain Light Rain
11:53 AM 75.9 °F - 71.1 °F 85% 29.90 in 10.0 mi SSW 3.5 mph - 0.01 in Rain Light Rain
12:53 PM 81.0 °F 84.9 °F 71.1 °F 72% 29.88 in 10.0 mi South 9.2 mph - 0.00 in   Scattered Clouds
1:53 PM 82.9 °F 87.5 °F 71.1 °F 67% 29.87 in 10.0 mi South 9.2 mph - N/A   Clear
2:53 PM 86.0 °F 91.5 °F 71.1 °F 61% 29.86 in 10.0 mi SW 15.0 mph 23.0 mph N/A   Clear
3:53 PM 86.0 °F 92.2 °F 72.0 °F 63% 29.86 in 10.0 mi SSW 10.4 mph 21.9 mph N/A   Partly Cloudy
4:53 PM 87.1 °F 95.4 °F 73.9 °F 65% 29.84 in 10.0 mi SSW 11.5 mph 20.7 mph N/A   Partly Cloudy
5:53 PM 88.0 °F 96.5 °F 73.9 °F 63% 29.83 in 10.0 mi WSW 12.7 mph 19.6 mph N/A   Clear
6:53 PM 86.0 °F 93.8 °F 73.9 °F 67% 29.83 in 10.0 mi SW 11.5 mph - N/A   Clear
7:53 PM 84.9 °F 92.1 °F 73.9 °F 69% 29.82 in 10.0 mi SW 6.9 mph - N/A   Clear
8:53 PM 82.9 °F 90.2 °F 75.0 °F 77% 29.83 in 10.0 mi WSW 6.9 mph - N/A   Scattered Clouds
9:53 PM 79.0 °F - 75.0 °F 88% 29.86 in 10.0 mi SSW 3.5 mph - 0.00 in   Clear
10:53 PM 75.9 °F - 71.1 °F 85% 29.87 in 10.0 mi Calm Calm - N/A   Clear
11:53 PM 73.0 °F - 71.1 °F 93% 29.87 in 9.0 mi WSW 3.5 mph - N/A   Clear